Regional Weather Roundup
Issued by NWS

Home | Current Version | Previous Version | Text Only | Print | Product List | Glossary On
Versions: 1 2 3 4 5 6 7 8 9 10 11 12 13 14 15 16 17 18 19 20 21 22 23 24 25 26 27 28 29 30 31 32 33 34 35 36 37 38 39 40 41 42 43 44 45 46 47 48 49 50
000
ASUS43 KDTX 140710
RWRMI
MICHIGAN HOURLY REGIONAL WEATHER ROUNDUP
NATIONAL WEATHER SERVICE DETROIT/PONTIAC MI
200 AM EST THU DEC 14 2017

NOTE: "FAIR" INDICATES FEW OR NO CLOUDS BELOW 12,000 FEET WITH NO
SIGNIFICANT WEATHER AND/OR OBSTRUCTION TO VISIBILITY.

MIZ047>049-052>055-059>063-066>070-074>076-081>083-140800-
SOUTHEAST LOWER MICHIGAN

CITY           SKY/WX    TMP DP  RH WIND       PRES   REMARKS
ADRIAN         CLEAR     19  14  81 N10       29.66R WCI   7
ALMA           MOCLDY    13   9  81 N9        29.75R WCI   1
ANN ARBOR      LGT SNOW  20  17  88 NW13      29.63R FOG     WCI   7
BAD AXE        LGT SNOW  20  18  91 N8        29.67R WCI  11
CARO           LGT SNOW  21  18  89 N16G22    29.67R VSB 1   WCI   7
DETROIT CITY   FLURRIES  21  16  81 N14       29.62R WCI   8
DETROIT        LGT SNOW  23  17  78 N13       29.63R WCI  11
FLINT          FLURRIES  18  15  88 N15G23    29.68R WCI   4
GROSSE ILE     CLOUDY    21  17  86 N12       29.60R WCI   9
HILLSDALE      CLOUDY    19  14  79 N13       29.64R WCI   7
HOWELL         FLURRIES  19  16  89 N13G20    29.66R WCI   5

CITY           SKY/WX    TMP DP  RH WIND       PRES   REMARKS
JACKSON        CLOUDY    20  14  77 NW14      29.67R WCI   7
LAMBERTVILLE   FLURRIES  20  16  86 N9        29.64R WCI   9
LANSING        FLURRIES  16  12  84 N12       29.72R WCI   3
LAPEER         FLURRIES  21  18  86 N7        29.65R WCI  12
MASON          FLURRIES  19  12  76 N12G20    29.69R WCI   6
MONROE         PTCLDY    20  15  82 NW10      29.62R WCI   9
MT. CLEMENS    FLURRIES  21  19  93 N8        29.61R WCI  12
PONTIAC        LGT SNOW  20  18  92 N10       29.62R FOG     WCI   9
PORT HOPE        N/A     23  18  81 N21G33    29.65R WCI   8
PORT HURON     LGT SNOW  21  18  86 N8        29.62R WCI  12
TRI CITIES     PTCLDY    13   8  81 N15       29.73R WCI  -3
MIDLAND        FAIR      13   7  75 N10       29.74R WCI   0
TROY           FLURRIES  22  19  85 NW10      29.64R WCI  12
SAGINAW HB     CLOUDY    18  10  73 NW14G20   29.71R WCI   4
$$
MIZ043>046-050>051-056>058-064>065-071>073-077>080-140800-
SOUTHWEST LOWER MICHIGAN

CITY           SKY/WX    TMP DP  RH WIND       PRES   REMARKS
BATTLE CREEK   CLOUDY    18  13  80 N15       29.72R WCI   4
BENTON HARBOR  CLOUDY    21  13  71 N8        29.79R WCI  11
BIG RAPIDS     CLEAR     10   6  86 NW6       29.77R WCI   0
COLDWATER      CLOUDY    20  16  84 N18       29.70R WCI   4
FREMONT        FAIR      11   8  87 N5        29.79R WCI   3
HOLLAND        CLEAR     16  10  77 N7        29.80R WCI   6
GRAND RAPIDS   CLEAR     15   9  76 N12       29.76R WCI   2
IONIA          FAIR      15   9  80 N10       29.73R WCI   2
KALAMAZOO      CLOUDY    19  13  77 N15       29.74R WCI   5
LUDINGTON      LGT SNOW  16  10  78 NE3       29.80R
MARSHALL       CLOUDY    18  13  82 NW6G16    29.70R WCI  10
MOUNT PLEASANT CLEAR     13   6  75 NW6       29.75R WCI   4
MUSKEGON       CLEAR     15   7  70 N7        29.81R WCI   5
SOUTH HAVEN    CLEAR     18  12  79 N6        29.79R WCI   9
$$
MIZ016>042-140800-
NORTHERN LOWER MICHIGAN

CITY           SKY/WX    TMP DP  RH WIND       PRES   REMARKS
ALPENA         FLURRIES  14   9  80 N12       29.75R WCI   0
BEAVER ISLAND  CLOUDY    15   8  71 N6        29.81R WCI   7
BELLAIRE       LGT SNOW   4   3  94 CALM      29.82R
CADILLAC       FLURRIES   8   5  86 N5        29.72R WCI   0
CHARLEVOIX     FLURRIES  17  11  77 N12G17    29.82R WCI   4
FRANKFORT      CLOUDY    22  14  69 N7        29.80R WCI  14
GAYLORD        PTCLDY     3  -1  83 CALM      29.72R
GRAYLING       PTCLDY     1  -3  81 W3        29.74R
HARBOR SPRINGS MOCLDY     1  -2  87 CALM      29.79S
HOUGHTON LAKE  CLOUDY     7   4  87 N6        29.73R WCI  -3
MANISTEE       FLURRIES  17  10  74 NE7       29.80R WCI   8
OSCODA         CLEAR     10   4  77 NW8       29.73R WCI  -2
PELLSTON       CLEAR    -11 -14  86 CALM      29.81R
ROGERS CITY    CLOUDY    13   6  74 N9G18     29.77R WCI   1
TRAVERSE CITY  LGT SNOW  15  10  80 E5        29.79R WCI   8
$$
MIZ007>008-015-140800-
EASTERN UPPER MICHIGAN

CITY           SKY/WX    TMP DP  RH WIND       PRES   REMARKS
KINROSS        PTCLDY    -4  -8  83 NE5       29.79R WCI -15
MACKINAC ISLAN CLOUDY     8   3  80 N6        29.79R WCI  -2
NEWBERRY       FLURRIES   8   7  94 CALM      29.79R
S. S. MARIE    CLOUDY    -2 -10  69 N8        29.80R WCI -17
$$
MIZ004>006-011>014-085-140800-
CENTRAL UPPER MICHIGAN

CITY           SKY/WX    TMP DP  RH WIND       PRES   REMARKS
MANISTIQUE     FLURRIES  -4  -8  84 CALM      29.82R
ESCANABA       FLURRIES  12   9  87 W7        29.85R WCI   1
MENOMINEE      CLOUDY     4   2  91 NW3       29.88R
SAWYER-GWINN   CLOUDY    13   8  80 N13G18    29.80S WCI  -1
$$
MIZ001>003-009>011-084-140800-
WESTERN UPPER MICHIGAN

CITY           SKY/WX    TMP DP  RH WIND       PRES   REMARKS
IRON MOUNTAIN  FLURRIES  15   8  73 NW7       29.82S WCI   5
HOUGHTON       FLURRIES  13   5  70 NW9       29.85S WCI   1
IRONWOOD       CLOUDY    15  10  80 NW6       29.88S WCI   6
$$

ABBREVIATIONS USED IN REMARKS
   TC - TEMPERATURE IN CELSIUS
  WCI - WIND CHILL INDEX
   HX - HEAT INDEX
  VSB - VISIBILITY




USA.gov is the U.S. government's official web portal to all federal, state and local government web resources and services.